Norris Observed Data For Previous 48 Hours

Caption
Day and Hour Reservoir Elevation (behind dam)* Tailwater Elevation (below dam)* Average Hourly Discharge*
10/16/2018 2 AM EDT 1,014.86 825.10 4,311
10/16/2018 3 AM EDT 1,014.87 825.05 4,310
10/16/2018 4 AM EDT 1,014.85 825.00 4,309
10/16/2018 5 AM EDT 1,014.86 825.04 4,308
10/16/2018 6 AM EDT 1,014.84 825.06 4,304
10/16/2018 7 AM EDT 1,014.84 825.03 4,308
10/16/2018 8 AM EDT 1,014.83 825.07 4,308
10/16/2018 9 AM EDT 1,014.84 824.98 4,307
10/16/2018 10 AM EDT 1,014.83 825.07 4,306
10/16/2018 11 AM EDT 1,014.81 825.05 4,306
10/16/2018 12 PM EDT 1,014.82 825.04 4,307
10/16/2018 1 PM EDT 1,014.80 825.01 4,306
10/16/2018 2 PM EDT 1,014.82 825.09 4,301
10/16/2018 3 PM EDT 1,014.78 825.01 4,305
10/16/2018 4 PM EDT 1,014.78 825.01 4,309
10/16/2018 5 PM EDT 1,014.77 825.01 4,309
10/16/2018 6 PM EDT 1,014.76 825.02 4,307
10/16/2018 7 PM EDT 1,014.76 825.02 4,309
10/16/2018 8 PM EDT 1,014.77 825.07 4,308
10/16/2018 9 PM EDT 1,014.76 824.97 4,307
10/16/2018 10 PM EDT 1,014.78 825.12 4,305
10/16/2018 11 PM EDT 1,014.75 825.04 4,306
10/17/2018 12 AM EDT 1,014.73 825.03 4,308
10/17/2018 1 AM EDT 1,014.75 825.04 4,308
10/17/2018 2 AM EDT 1,014.74 825.07 4,307
10/17/2018 3 AM EDT 1,014.74 825.04 4,308
10/17/2018 4 AM EDT 1,014.72 825.05 4,308
10/17/2018 5 AM EDT 1,014.70 825.09 4,308
10/17/2018 6 AM EDT 1,014.70 825.00 4,302
10/17/2018 7 AM EDT 1,014.70 825.05 4,306
10/17/2018 8 AM EDT 1,014.70 825.02 4,306
10/17/2018 9 AM EDT 1,014.68 825.10 4,305
10/17/2018 10 AM EDT 1,014.69 825.04 4,305
10/17/2018 11 AM EDT 1,014.67 825.04 4,306
10/17/2018 12 PM EDT 1,014.66 825.05 4,307
10/17/2018 1 PM EDT 1,014.65 824.99 4,305
10/17/2018 2 PM EDT 1,014.64 825.05 4,301
10/17/2018 3 PM EDT 1,014.64 825.01 4,304
10/17/2018 4 PM EDT 1,014.64 825.00 4,308
10/17/2018 5 PM EDT 1,014.63 824.96 4,309
10/17/2018 6 PM EDT 1,014.61 825.00 4,307
10/17/2018 7 PM EDT 1,014.61 824.99 4,308
10/17/2018 8 PM EDT 1,014.61 825.04 4,307
10/17/2018 9 PM EDT 1,014.60 825.01 4,307
10/17/2018 10 PM EDT 1,014.60 825.00 4,301
10/17/2018 11 PM EDT 1,014.59 825.02 4,306
10/18/2018 12 AM EDT 1,014.58 825.07 4,304
10/18/2018 1 AM EDT 1,014.58 825.05 4,305

Elevations are in feet above sea level. Discharges are in cubic feet per second and are reported at the end of the hour.